Location: Newark
(25.4297°S, 49.2719°W)
Time: 08:22:45
(UTC+00:00)

Vanguard 1 Rocket - Pass Details

Date: 23 November 2019
Orbit: 650 x 4226 km, 34.3° (Epoch: 12 December)

Event Time Altitude Azimuth Distance (km) Brightness Sun altitude
Rises 18:46:38 0° 266° (W) 7,313 12.9 38.7°
Reaches altitude 10° 18:51:06 10° 263° (W) 6,635 13.1 37.7°
Maximum altitude 19:15:59 68° 180° (S) 4,416 11.4 32.2°
Drops below altitude 10° 19:39:35 10° 97° (E) 6,358 11.2 26.9°
Sets 19:43:44 0° 93° (E) 7,014 11.4 26.0°
